Time,TemperatureF,DewpointF,PressureIn,WindDirection,WindDirectionDegrees,WindSpeedMPH,WindSpeedGustMPH,Humidity,HourlyPrecipIn,Conditions,Clouds,dailyrainin,SolarRadiationWatts/m^2,SoftwareType,DateUTC
2013-01-23 00:04:00,21.1,14.1,30.40,ENE,68,1.0,1.0,74,0.00,,CLR,0.00,0.00,VWS V14.01,2013-01-23 08:04:00,
2013-01-23 00:09:00,20.9,13.9,30.40,West,279,2.0,3.0,74,0.00,,CLR,0.00,0.00,VWS V14.01,2013-01-23 08:09:00,
2013-01-23 00:14:00,20.7,13.7,30.40,West,279,1.0,2.0,74,0.00,,CLR,0.00,0.00,VWS V14.01,2013-01-23 08:14:00,
2013-01-23 00:19:00,20.4,13.1,30.40,West,279,0.0,2.0,73,0.00,,CLR,0.00,0.00,VWS V14.01,2013-01-23 08:19:00,
2013-01-23 00:24:00,20.2,12.9,30.39,West,279,0.0,0.0,73,0.00,,CLR,0.00,0.00,VWS V14.01,2013-01-23 08:24:00,
2013-01-23 00:29:00,19.9,13.0,30.39,West,279,0.0,0.0,74,0.00,,CLR,0.00,0.00,VWS V14.01,2013-01-23 08:29:00,
2013-01-23 00:34:00,19.8,12.9,30.39,West,279,0.0,0.0,74,0.00,,CLR,0.00,0.00,VWS V14.01,2013-01-23 08:34:00,
2013-01-23 00:39:00,19.6,12.7,30.39,West,279,0.0,0.0,74,0.00,,CLR,0.00,0.00,VWS V14.01,2013-01-23 08:39:00,
2013-01-23 00:44:00,19.4,12.8,30.39,West,279,0.0,0.0,75,0.00,,CLR,0.00,0.00,VWS V14.01,2013-01-23 08:44:00,
2013-01-23 00:49:00,19.3,12.7,30.39,West,279,0.0,0.0,75,0.00,,CLR,0.00,0.00,VWS V14.01,2013-01-23 08:49:00,
2013-01-23 00:54:00,19.1,12.8,30.38,West,279,0.0,0.0,76,0.00,,CLR,0.00,0.00,VWS V14.01,2013-01-23 08:54:00,
2013-01-23 00:59:00,18.9,12.6,30.39,West,279,0.0,0.0,76,0.00,,CLR,0.00,0.00,VWS V14.01,2013-01-23 08:59:00,
2013-01-23 01:04:00,18.9,12.6,30.38,West,279,1.0,2.0,76,0.00,,CLR,0.00,0.00,VWS V14.01,2013-01-23 09:04:00,
2013-01-23 01:09:00,18.8,12.5,30.39,West,279,0.0,1.0,76,0.00,,CLR,0.00,0.00,VWS V14.01,2013-01-23 09:09:00,
2013-01-23 01:14:00,18.7,12.4,30.38,West,279,0.0,0.0,76,0.00,,CLR,0.00,0.00,VWS V14.01,2013-01-23 09:14:00,
2013-01-23 01:19:00,18.7,12.7,30.38,West,279,0.0,0.0,77,0.00,,CLR,0.00,0.00,VWS V14.01,2013-01-23 09:19:00,
2013-01-23 01:24:00,18.6,12.6,30.38,West,279,0.0,1.0,77,0.00,,CLR,0.00,0.00,VWS V14.01,2013-01-23 09:24:00,
2013-01-23 01:29:00,18.6,12.9,30.38,West,279,0.0,0.0,78,0.00,,CLR,0.00,0.00,VWS V14.01,2013-01-23 09:29:00,
2013-01-23 01:34:00,18.6,12.9,30.38,West,279,0.0,0.0,78,0.00,,CLR,0.00,0.00,VWS V14.01,2013-01-23 09:34:00,
2013-01-23 01:39:00,18.6,12.9,30.39,West,279,0.0,1.0,78,0.00,,CLR,0.00,0.00,VWS V14.01,2013-01-23 09:39:00,
2013-01-23 01:44:00,18.6,12.9,30.39,West,279,0.0,0.0,78,0.00,,CLR,0.00,0.00,VWS V14.01,2013-01-23 09:44:00,
2013-01-23 01:49:00,18.6,12.9,30.38,West,279,0.0,0.0,78,0.00,,CLR,0.00,0.00,VWS V14.01,2013-01-23 09:49:00,
2013-01-23 01:54:00,18.6,12.9,30.38,West,279,0.0,0.0,78,0.00,,CLR,0.00,0.00,VWS V14.01,2013-01-23 09:54:00,
2013-01-23 01:59:00,18.6,12.9,30.38,West,279,0.0,1.0,78,0.00,,CLR,0.00,0.00,VWS V14.01,2013-01-23 09:59:00,
2013-01-23 02:04:00,18.6,12.9,30.38,West,279,0.0,0.0,78,0.00,,CLR,0.00,0.00,VWS V14.01,2013-01-23 10:04:00,
2013-01-23 02:09:00,18.7,13.0,30.39,West,279,0.0,2.0,78,0.00,,CLR,0.00,0.00,VWS V14.01,2013-01-23 10:09:00,
2013-01-23 02:14:00,18.7,13.0,30.38,West,279,0.0,1.0,78,0.00,,CLR,0.00,0.00,VWS V14.01,2013-01-23 10:14:00,
2013-01-23 02:19:00,18.8,13.1,30.38,West,279,0.0,0.0,78,0.00,,CLR,0.00,0.00,VWS V14.01,2013-01-23 10:19:00,
2013-01-23 02:25:00,18.8,13.1,30.38,West,279,1.0,1.0,78,0.00,,CLR,0.00,0.00,VWS V14.01,2013-01-23 10:25:00,
2013-01-23 02:30:00,18.8,12.8,30.38,West,279,0.0,1.0,77,0.00,,CLR,0.00,0.00,VWS V14.01,2013-01-23 10:30:00,
2013-01-23 02:35:00,18.8,12.8,30.38,West,279,0.0,1.0,77,0.00,,CLR,0.00,0.00,VWS V14.01,2013-01-23 10:35:00,
2013-01-23 02:40:00,18.8,12.8,30.38,West,279,0.0,0.0,77,0.00,,CLR,0.00,0.00,VWS V14.01,2013-01-23 10:40:00,
2013-01-23 02:45:00,18.8,13.1,30.38,West,279,0.0,0.0,78,0.00,,CLR,0.00,0.00,VWS V14.01,2013-01-23 10:45:00,
2013-01-23 02:50:00,18.8,12.8,30.39,West,279,0.0,1.0,77,0.00,,CLR,0.00,0.00,VWS V14.01,2013-01-23 10:50:00,
2013-01-23 02:55:00,18.8,12.8,30.38,West,279,0.0,0.0,77,0.00,,CLR,0.00,0.00,VWS V14.01,2013-01-23 10:55:00,
2013-01-23 03:00:00,18.8,13.1,30.38,West,279,0.0,0.0,78,0.00,,CLR,0.00,0.00,VWS V14.01,2013-01-23 11:00:00,
2013-01-23 03:05:00,18.8,12.8,30.37,West,279,0.0,0.0,77,0.00,,CLR,0.00,0.00,VWS V14.01,2013-01-23 11:05:00,
2013-01-23 03:10:00,18.7,12.7,30.37,West,279,0.0,0.0,77,0.00,,CLR,0.00,0.00,VWS V14.01,2013-01-23 11:10:00,
2013-01-23 03:15:00,18.6,12.6,30.37,West,279,0.0,1.0,77,0.00,,CLR,0.00,0.00,VWS V14.01,2013-01-23 11:15:00,
2013-01-23 03:20:00,18.3,12.3,30.37,West,279,0.0,1.0,77,0.00,,CLR,0.00,0.00,VWS V14.01,2013-01-23 11:20:00,
2013-01-23 03:25:00,18.3,12.9,30.38,West,279,0.0,1.0,79,0.00,,CLR,0.00,0.00,VWS V14.01,2013-01-23 11:25:00,
2013-01-23 03:30:00,18.3,12.9,30.37,West,279,1.0,1.0,79,0.00,,CLR,0.00,0.00,VWS V14.01,2013-01-23 11:30:00,
2013-01-23 03:35:00,18.4,13.0,30.37,West,279,0.0,1.0,79,0.00,,CLR,0.00,0.00,VWS V14.01,2013-01-23 11:35:00,
2013-01-23 03:40:00,18.4,13.0,30.36,West,279,0.0,1.0,79,0.00,,CLR,0.00,0.00,VWS V14.01,2013-01-23 11:40:00,
2013-01-23 03:45:00,18.5,13.1,30.36,West,279,0.0,1.0,79,0.00,,CLR,0.00,0.00,VWS V14.01,2013-01-23 11:45:00,
2013-01-23 03:50:00,18.6,13.2,30.36,West,279,0.0,0.0,79,0.00,,CLR,0.00,0.00,VWS V14.01,2013-01-23 11:50:00,
2013-01-23 03:55:00,18.6,13.2,30.36,West,279,0.0,0.0,79,0.00,,CLR,0.00,0.00,VWS V14.01,2013-01-23 11:55:00,
2013-01-23 04:00:00,18.7,13.3,30.36,West,279,0.0,0.0,79,0.00,,CLR,0.00,0.00,VWS V14.01,2013-01-23 12:00:00,
2013-01-23 04:05:00,18.7,13.0,30.35,West,279,0.0,1.0,78,0.00,,CLR,0.00,0.00,VWS V14.01,2013-01-23 12:05:00,
2013-01-23 04:10:00,18.8,13.1,30.36,West,279,1.0,2.0,78,0.00,,CLR,0.00,0.00,VWS V14.01,2013-01-23 12:10:00,
2013-01-23 04:15:00,18.9,13.5,30.36,West,279,0.0,1.0,79,0.00,,CLR,0.00,0.00,VWS V14.01,2013-01-23 12:15:00,
2013-01-23 04:20:00,18.9,13.2,30.36,West,279,0.0,1.0,78,0.00,,CLR,0.00,0.00,VWS V14.01,2013-01-23 12:20:00,
2013-01-23 04:25:00,19.0,13.3,30.36,West,279,0.0,2.0,78,0.00,,CLR,0.00,0.00,VWS V14.01,2013-01-23 12:25:00,
2013-01-23 04:30:00,19.0,13.3,30.36,West,279,0.0,0.0,78,0.00,,CLR,0.00,0.00,VWS V14.01,2013-01-23 12:30:00,
2013-01-23 04:35:00,19.1,13.4,30.35,West,279,0.0,0.0,78,0.00,,CLR,0.00,0.00,VWS V14.01,2013-01-23 12:35:00,
2013-01-23 04:40:00,19.2,13.5,30.34,West,279,0.0,0.0,78,0.00,,CLR,0.00,0.00,VWS V14.01,2013-01-23 12:40:00,
2013-01-23 04:45:00,19.2,13.5,30.35,West,279,0.0,0.0,78,0.00,,CLR,0.00,0.00,VWS V14.01,2013-01-23 12:45:00,
2013-01-23 04:50:00,19.3,13.6,30.35,West,279,0.0,0.0,78,0.00,,CLR,0.00,0.00,VWS V14.01,2013-01-23 12:50:00,
2013-01-23 04:55:00,19.3,13.6,30.35,West,279,0.0,0.0,78,0.00,,CLR,0.00,0.00,VWS V14.01,2013-01-23 12:55:00,
2013-01-23 05:00:00,19.3,13.6,30.35,West,279,0.0,0.0,78,0.00,,CLR,0.00,0.00,VWS V14.01,2013-01-23 13:00:00,
2013-01-23 05:05:00,19.3,13.6,30.34,West,279,0.0,0.0,78,0.00,,CLR,0.00,0.00,VWS V14.01,2013-01-23 13:05:00,
2013-01-23 05:10:00,19.4,13.7,30.34,West,279,0.0,0.0,78,0.00,,CLR,0.00,0.00,VWS V14.01,2013-01-23 13:10:00,
2013-01-23 05:15:00,19.4,13.7,30.34,West,279,0.0,0.0,78,0.00,,CLR,0.00,0.00,VWS V14.01,2013-01-23 13:15:00,
2013-01-23 05:20:00,19.5,13.8,30.34,West,279,0.0,0.0,78,0.00,,CLR,0.00,0.00,VWS V14.01,2013-01-23 13:20:00,
2013-01-23 05:25:00,19.6,13.9,30.34,West,279,0.0,0.0,78,0.00,,CLR,0.00,0.00,VWS V14.01,2013-01-23 13:25:00,
2013-01-23 05:30:00,19.7,14.0,30.34,West,279,0.0,0.0,78,0.00,,CLR,0.00,0.00,VWS V14.01,2013-01-23 13:30:00,
2013-01-23 05:35:00,19.8,14.1,30.35,West,279,0.0,0.0,78,0.00,,CLR,0.00,0.00,VWS V14.01,2013-01-23 13:35:00,
2013-01-23 05:40:00,19.9,14.2,30.34,West,279,0.0,0.0,78,0.00,,CLR,0.00,0.00,VWS V14.01,2013-01-23 13:40:00,
2013-01-23 05:45:00,19.9,14.2,30.34,West,279,0.0,0.0,78,0.00,,CLR,0.00,0.00,VWS V14.01,2013-01-23 13:45:00,
2013-01-23 05:50:00,20.0,14.3,30.34,West,279,0.0,0.0,78,0.00,,CLR,0.00,0.00,VWS V14.01,2013-01-23 13:50:00,
2013-01-23 05:55:00,20.1,14.4,30.34,West,279,0.0,1.0,78,0.00,,CLR,0.00,0.00,VWS V14.01,2013-01-23 13:55:00,
2013-01-23 06:00:00,20.1,14.4,30.35,West,279,0.0,0.0,78,0.00,,CLR,0.00,0.00,VWS V14.01,2013-01-23 14:00:00,
2013-01-23 06:05:00,20.2,14.4,30.35,West,279,0.0,0.0,78,0.00,,CLR,0.00,0.00,VWS V14.01,2013-01-23 14:05:00,
2013-01-23 06:10:00,20.2,14.4,30.35,West,279,0.0,0.0,78,0.00,,CLR,0.00,0.00,VWS V14.01,2013-01-23 14:10:00,
2013-01-23 06:15:00,20.3,14.6,30.34,West,279,0.0,0.0,78,0.00,,CLR,0.00,0.00,VWS V14.01,2013-01-23 14:15:00,
2013-01-23 06:20:00,20.4,14.9,30.35,West,279,0.0,0.0,79,0.00,,CLR,0.00,0.00,VWS V14.01,2013-01-23 14:20:00,
2013-01-23 06:25:00,20.6,15.1,30.34,West,279,0.0,1.0,79,0.00,,BKN180,0.00,0.00,VWS V14.01,2013-01-23 14:25:00,
2013-01-23 06:30:00,20.8,15.0,30.34,West,279,0.0,0.0,78,0.00,,BKN180,0.00,0.00,VWS V14.01,2013-01-23 14:30:00,
2013-01-23 06:35:00,20.9,15.1,30.34,West,279,0.0,0.0,78,0.00,,BKN180,0.00,0.00,VWS V14.01,2013-01-23 14:35:00,
2013-01-23 06:40:00,21.0,15.2,30.35,West,279,0.0,0.0,78,0.00,,BKN180,0.00,0.00,VWS V14.01,2013-01-23 14:40:00,
2013-01-23 06:45:00,21.1,15.3,30.34,West,279,0.0,0.0,78,0.00,,BKN180,0.00,0.00,VWS V14.01,2013-01-23 14:45:00,
2013-01-23 06:50:00,21.1,15.3,30.34,West,279,0.0,0.0,78,0.00,,BKN180,0.00,0.00,VWS V14.01,2013-01-23 14:50:00,
2013-01-23 06:56:00,21.2,15.4,30.34,West,279,0.0,0.0,78,0.00,,BKN180,0.00,0.00,VWS V14.01,2013-01-23 14:56:00,
2013-01-23 07:01:00,21.2,15.1,30.34,West,279,0.0,0.0,77,0.00,,BKN180,0.00,0.00,VWS V14.01,2013-01-23 15:01:00,
2013-01-23 07:06:00,21.2,15.4,30.34,West,279,0.0,0.0,78,0.00,,BKN180,0.00,0.00,VWS V14.01,2013-01-23 15:06:00,
2013-01-23 07:11:00,21.2,15.4,30.33,West,279,0.0,0.0,78,0.00,,BKN180,0.00,0.00,VWS V14.01,2013-01-23 15:11:00,
2013-01-23 07:16:00,21.2,15.4,30.34,West,279,0.0,0.0,78,0.00,,BKN180,0.00,0.00,VWS V14.01,2013-01-23 15:16:00,
2013-01-23 07:21:00,21.3,15.2,30.34,West,279,0.0,1.0,77,0.00,,BKN180,0.00,0.00,VWS V14.01,2013-01-23 15:21:00,
2013-01-23 07:26:00,21.4,15.6,30.34,West,279,0.0,0.0,78,0.00,,BKN180,0.00,0.00,VWS V14.01,2013-01-23 15:26:00,
2013-01-23 08:19:00,22.3,16.2,30.33,West,270,0.0,0.0,77,0.00,,BKN180,0.00,21.00,VWS V14.01,2013-01-23 16:19:00,
2013-01-23 08:24:00,22.7,16.6,30.32,West,279,0.0,0.0,77,0.00,,BKN200,0.00,21.00,VWS V14.01,2013-01-23 16:24:00,
2013-01-23 08:29:00,23.0,16.6,30.32,West,279,0.0,0.0,76,0.00,,BKN200,0.00,23.00,VWS V14.01,2013-01-23 16:29:00,
2013-01-23 08:34:00,23.2,16.8,30.33,West,279,1.0,1.0,76,0.00,,BKN200,0.00,28.00,VWS V14.01,2013-01-23 16:34:00,
2013-01-23 08:39:00,23.3,16.9,30.32,West,279,0.0,1.0,76,0.00,,BKN200,0.00,33.00,VWS V14.01,2013-01-23 16:39:00,
2013-01-23 08:44:00,23.5,16.8,30.32,West,279,0.0,0.0,75,0.00,,BKN200,0.00,37.00,VWS V14.01,2013-01-23 16:44:00,
2013-01-23 08:49:00,23.5,16.8,30.32,West,279,0.0,1.0,75,0.00,,BKN200,0.00,40.00,VWS V14.01,2013-01-23 16:49:00,
2013-01-23 08:54:00,23.7,16.6,30.32,West,279,0.0,0.0,74,0.00,,BKN200,0.00,49.00,VWS V14.01,2013-01-23 16:54:00,
2013-01-23 08:59:00,24.0,16.9,30.33,West,279,0.0,1.0,74,0.00,,BKN200,0.00,51.00,VWS V14.01,2013-01-23 16:59:00,
2013-01-23 09:04:00,24.3,17.2,30.33,West,279,0.0,2.0,74,0.00,,BKN190,0.00,56.00,VWS V14.01,2013-01-23 17:04:00,
2013-01-23 09:09:00,24.6,17.2,30.33,West,279,0.0,1.0,73,0.00,,BKN190,0.00,69.00,VWS V14.01,2013-01-23 17:09:00,
2013-01-23 09:14:00,24.7,17.0,30.34,West,279,0.0,2.0,72,0.00,,BKN190,0.00,74.00,VWS V14.01,2013-01-23 17:14:00,
2013-01-23 09:19:00,24.9,17.2,30.34,West,279,0.0,1.0,72,0.00,,BKN190,0.00,81.00,VWS V14.01,2013-01-23 17:19:00,
2013-01-23 09:24:00,25.2,17.5,30.34,West,279,0.0,1.0,72,0.00,,BKN190,0.00,90.00,VWS V14.01,2013-01-23 17:24:00,
2013-01-23 09:29:00,25.7,17.6,30.34,West,279,1.0,2.0,71,0.00,,BKN190,0.00,102.00,VWS V14.01,2013-01-23 17:29:00,
2013-01-23 09:34:00,26.1,17.7,30.34,West,279,1.0,2.0,70,0.00,,BKN190,0.00,139.00,VWS V14.01,2013-01-23 17:34:00,
2013-01-23 09:39:00,26.8,18.3,30.34,West,279,0.0,1.0,70,0.00,,BKN190,0.00,207.00,VWS V14.01,2013-01-23 17:39:00,
2013-01-23 09:44:00,27.3,18.1,30.34,West,279,1.0,2.0,68,0.00,,BKN190,0.00,174.00,VWS V14.01,2013-01-23 17:44:00,
2013-01-23 09:49:00,27.4,17.9,30.34,West,279,0.0,2.0,67,0.00,,BKN190,0.00,144.00,VWS V14.01,2013-01-23 17:49:00,
2013-01-23 09:54:00,27.8,18.3,30.34,West,279,0.0,1.0,67,0.00,,BKN190,0.00,158.00,VWS V14.01,2013-01-23 17:54:00,
2013-01-23 09:59:00,28.0,18.5,30.33,West,279,0.0,1.0,67,0.00,,BKN190,0.00,172.00,VWS V14.01,2013-01-23 17:59:00,
2013-01-23 10:04:00,28.3,18.1,30.34,West,279,0.0,0.0,65,0.00,,BKN170,0.00,183.00,VWS V14.01,2013-01-23 18:04:00,
2013-01-23 10:09:00,28.9,18.6,30.34,West,279,0.0,0.0,65,0.00,,BKN170,0.00,171.00,VWS V14.01,2013-01-23 18:09:00,
2013-01-23 10:14:00,29.6,18.9,30.34,West,279,0.0,1.0,64,0.00,,BKN170,0.00,262.00,VWS V14.01,2013-01-23 18:14:00,
2013-01-23 10:19:00,31.2,20.8,30.34,West,279,0.0,1.0,65,0.00,,BKN170,0.00,605.00,VWS V14.01,2013-01-23 18:19:00,
2013-01-23 10:24:00,30.9,18.7,30.34,West,279,0.0,1.0,60,0.00,,BKN170,0.00,257.00,VWS V14.01,2013-01-23 18:24:00,
2013-01-23 10:29:00,31.5,19.2,30.34,West,279,0.0,1.0,60,0.00,,BKN170,0.00,230.00,VWS V14.01,2013-01-23 18:29:00,
2013-01-23 10:34:00,30.9,19.0,30.34,West,279,0.0,1.0,61,0.00,,BKN170,0.00,359.00,VWS V14.01,2013-01-23 18:34:00,
2013-01-23 10:39:00,33.6,21.6,30.34,West,279,2.0,2.0,61,0.00,,BKN170,0.00,380.00,VWS V14.01,2013-01-23 18:39:00,
2013-01-23 10:44:00,32.4,19.3,30.33,WNW,298,0.0,3.0,58,0.00,,BKN170,0.00,288.00,VWS V14.01,2013-01-23 18:44:00,
2013-01-23 10:49:00,32.6,19.1,30.33,NNE,19,1.0,3.0,57,0.00,,BKN170,0.00,264.00,VWS V14.01,2013-01-23 18:49:00,
2013-01-23 10:54:00,32.4,19.3,30.33,North,350,3.0,4.0,58,0.00,,BKN170,0.00,605.00,VWS V14.01,2013-01-23 18:54:00,
2013-01-23 10:59:00,32.0,19.3,30.33,North,5,1.0,4.0,59,0.00,,BKN170,0.00,315.00,VWS V14.01,2013-01-23 18:59:00,
2013-01-23 11:05:00,32.8,19.7,30.32,ENE,59,2.0,4.0,58,0.00,,BKN220,0.00,601.00,VWS V14.01,2013-01-23 19:05:00,
2013-01-23 11:10:00,33.4,20.2,30.32,ENE,72,2.0,5.0,58,0.00,,BKN220,0.00,318.00,VWS V14.01,2013-01-23 19:10:00,
2013-01-23 11:15:00,33.7,19.7,30.31,NNE,24,0.0,4.0,56,0.00,,BKN220,0.00,316.00,VWS V14.01,2013-01-23 19:15:00,
2013-01-23 11:20:00,33.6,19.6,30.31,ENE,71,2.0,3.0,56,0.00,,BKN220,0.00,227.00,VWS V14.01,2013-01-23 19:20:00,
2013-01-23 11:25:00,33.9,19.9,30.30,NE,55,3.0,5.0,56,0.00,,BKN220,0.00,345.00,VWS V14.01,2013-01-23 19:25:00,
2013-01-23 11:30:00,34.2,20.1,30.30,ENE,63,2.0,4.0,56,0.00,,BKN220,0.00,274.00,VWS V14.01,2013-01-23 19:30:00,
2013-01-23 11:35:00,34.4,19.9,30.30,ESE,106,4.0,5.0,55,0.00,,BKN220,0.00,225.00,VWS V14.01,2013-01-23 19:35:00,
2013-01-23 11:40:00,34.5,19.6,30.30,East,83,5.0,6.0,54,0.00,,BKN220,0.00,213.00,VWS V14.01,2013-01-23 19:40:00,
2013-01-23 11:45:00,34.6,19.7,30.30,ENE,71,1.0,5.0,54,0.00,,BKN220,0.00,350.00,VWS V14.01,2013-01-23 19:45:00,
2013-01-23 11:50:00,35.0,20.0,30.30,ESE,111,3.0,4.0,54,0.00,,BKN220,0.00,267.00,VWS V14.01,2013-01-23 19:50:00,
2013-01-23 11:55:00,34.9,19.5,30.30,ENE,61,0.0,4.0,53,0.00,,BKN220,0.00,225.00,VWS V14.01,2013-01-23 19:55:00,
2013-01-23 12:00:00,34.5,19.6,30.30,ENE,61,0.0,1.0,54,0.00,,BKN220,0.00,234.00,VWS V14.01,2013-01-23 20:00:00,
2013-01-23 12:05:00,34.8,19.9,30.30,ENE,61,0.0,2.0,54,0.00,,BKN220,0.00,255.00,VWS V14.01,2013-01-23 20:05:00,
2013-01-23 12:10:00,35.7,20.3,30.30,ENE,61,0.0,1.0,53,0.00,,BKN220,0.00,267.00,VWS V14.01,2013-01-23 20:10:00,
2013-01-23 12:15:00,35.7,20.3,30.29,ENE,61,0.0,1.0,53,0.00,,BKN220,0.00,246.00,VWS V14.01,2013-01-23 20:15:00,
2013-01-23 12:20:00,35.6,19.7,30.29,ENE,61,0.0,1.0,52,0.00,,BKN220,0.00,257.00,VWS V14.01,2013-01-23 20:20:00,
2013-01-23 12:25:00,35.7,19.8,30.29,ENE,61,0.0,2.0,52,0.00,,BKN220,0.00,262.00,VWS V14.01,2013-01-23 20:25:00,
2013-01-23 12:30:00,35.7,19.8,30.28,ENE,60,2.0,3.0,52,0.00,,BKN220,0.00,250.00,VWS V14.01,2013-01-23 20:30:00,
2013-01-23 12:35:00,35.9,19.5,30.28,ENE,57,0.0,3.0,51,0.00,,BKN220,0.00,295.00,VWS V14.01,2013-01-23 20:35:00,
2013-01-23 12:40:00,37.3,21.3,30.28,ENE,57,1.0,2.0,52,0.00,,BKN220,0.00,378.00,VWS V14.01,2013-01-23 20:40:00,
2013-01-23 12:45:00,37.0,20.1,30.28,ENE,76,1.0,4.0,50,0.00,,BKN220,0.00,483.00,VWS V14.01,2013-01-23 20:45:00,
2013-01-23 12:50:00,38.3,20.4,30.27,ESE,109,5.0,5.0,48,0.00,,BKN220,0.00,202.00,VWS V14.01,2013-01-23 20:50:00,
2013-01-23 12:55:00,37.8,19.9,30.27,East,94,2.0,7.0,48,0.00,,BKN220,0.00,315.00,VWS V14.01,2013-01-23 20:55:00,
2013-01-23 13:00:00,38.2,20.2,30.27,East,90,1.0,5.0,48,0.00,,BKN220,0.00,380.00,VWS V14.01,2013-01-23 21:00:00,
2013-01-23 13:05:00,37.9,20.0,30.27,ESE,115,1.0,7.0,48,0.00,,BKN220,0.00,232.00,VWS V14.01,2013-01-23 21:05:00,
2013-01-23 13:10:00,37.6,19.7,30.27,East,86,1.0,3.0,48,0.00,,BKN220,0.00,229.00,VWS V14.01,2013-01-23 21:10:00,
2013-01-23 13:15:00,38.3,20.4,30.27,East,86,1.0,3.0,48,0.00,,BKN220,0.00,369.00,VWS V14.01,2013-01-23 21:15:00,
2013-01-23 13:20:00,38.1,20.2,30.26,ENE,67,0.0,4.0,48,0.00,,BKN220,0.00,299.00,VWS V14.01,2013-01-23 21:20:00,
2013-01-23 13:25:00,39.1,20.6,30.26,ENE,69,2.0,5.0,47,0.00,,BKN220,0.00,587.00,VWS V14.01,2013-01-23 21:25:00,
2013-01-23 13:30:00,39.6,21.0,30.25,ENE,77,1.0,3.0,47,0.00,,BKN220,0.00,283.00,VWS V14.01,2013-01-23 21:30:00,
2013-01-23 13:35:00,40.6,20.4,30.25,East,96,0.0,5.0,44,0.00,,BKN220,0.00,376.00,VWS V14.01,2013-01-23 21:35:00,
2013-01-23 13:40:00,40.6,20.9,30.25,East,101,3.0,7.0,45,0.00,,BKN220,0.00,338.00,VWS V14.01,2013-01-23 21:40:00,
2013-01-23 13:45:00,41.1,20.9,30.25,ENE,59,3.0,5.0,44,0.00,,BKN220,0.00,540.00,VWS V14.01,2013-01-23 21:45:00,
2013-01-23 13:50:00,42.3,21.4,30.25,ENE,62,4.0,7.0,43,0.00,,BKN220,0.00,617.00,VWS V14.01,2013-01-23 21:50:00,
2013-01-23 13:55:00,42.7,21.2,30.24,SE,130,2.0,8.0,42,0.00,,BKN220,0.00,564.00,VWS V14.01,2013-01-23 21:55:00,
2013-01-23 14:00:00,41.8,21.0,30.25,ENE,67,4.0,9.0,43,0.00,,BKN220,0.00,209.00,VWS V14.01,2013-01-23 22:00:00,
2013-01-23 14:05:00,41.0,20.2,30.25,NE,53,4.0,6.0,43,0.00,,BKN220,0.00,503.00,VWS V14.01,2013-01-23 22:05:00,
2013-01-23 14:10:00,41.9,21.0,30.24,NE,43,3.0,5.0,43,0.00,,BKN220,0.00,469.00,VWS V14.01,2013-01-23 22:10:00,
2013-01-23 14:15:00,41.8,20.4,30.24,ENE,63,1.0,7.0,42,0.00,,BKN220,0.00,443.00,VWS V14.01,2013-01-23 22:15:00,
2013-01-23 14:20:00,42.1,20.7,30.24,ENE,61,4.0,7.0,42,0.00,,BKN220,0.00,373.00,VWS V14.01,2013-01-23 22:20:00,
2013-01-23 14:25:00,42.2,20.8,30.24,East,88,0.0,5.0,42,0.00,,BKN220,0.00,315.00,VWS V14.01,2013-01-23 22:25:00,
2013-01-23 14:30:00,42.3,20.3,30.23,NE,49,0.0,4.0,41,0.00,,BKN220,0.00,327.00,VWS V14.01,2013-01-23 22:30:00,
2013-01-23 14:35:00,41.9,20.5,30.23,ENE,64,2.0,3.0,42,0.00,,BKN220,0.00,364.00,VWS V14.01,2013-01-23 22:35:00,
2013-01-23 14:40:00,42.7,20.7,30.23,North,11,1.0,3.0,41,0.00,,BKN220,0.00,394.00,VWS V14.01,2013-01-23 22:40:00,
2013-01-23 14:45:00,42.4,21.0,30.23,NE,36,4.0,4.0,42,0.00,,BKN220,0.00,329.00,VWS V14.01,2013-01-23 22:45:00,
2013-01-23 14:50:00,42.0,20.0,30.23,North,5,1.0,4.0,41,0.00,,BKN220,0.00,265.00,VWS V14.01,2013-01-23 22:50:00,
2013-01-23 14:55:00,42.8,20.8,30.23,ESE,105,3.0,4.0,41,0.00,,BKN220,0.00,211.00,VWS V14.01,2013-01-23 22:55:00,
2013-01-23 15:00:00,42.5,20.5,30.23,NE,46,0.0,3.0,41,0.00,,BKN220,0.00,167.00,VWS V14.01,2013-01-23 23:00:00,
2013-01-23 15:05:00,42.0,20.0,30.23,NE,55,0.0,3.0,41,0.00,,BKN220,0.00,134.00,VWS V14.01,2013-01-23 23:05:00,
2013-01-23 15:10:00,42.0,20.0,30.23,NE,55,3.0,3.0,41,0.00,,BKN220,0.00,135.00,VWS V14.01,2013-01-23 23:10:00,
2013-01-23 15:15:00,42.1,20.1,30.23,ENE,72,0.0,3.0,41,0.00,,BKN220,0.00,141.00,VWS V14.01,2013-01-23 23:15:00,
2013-01-23 15:20:00,41.9,20.5,30.23,NE,55,1.0,3.0,42,0.00,,BKN220,0.00,148.00,VWS V14.01,2013-01-23 23:20:00,
2013-01-23 15:25:00,41.8,19.8,30.23,NE,56,1.0,4.0,41,0.00,,BKN220,0.00,151.00,VWS V14.01,2013-01-23 23:25:00,
2013-01-23 15:30:00,41.9,20.5,30.23,NE,56,2.0,3.0,42,0.00,,BKN220,0.00,153.00,VWS V14.01,2013-01-23 23:30:00,
2013-01-23 15:35:00,42.2,20.2,30.23,ENE,57,1.0,2.0,41,0.00,,BKN220,0.00,123.00,VWS V14.01,2013-01-23 23:35:00,
2013-01-23 15:40:00,42.0,20.0,30.23,ENE,64,0.0,2.0,41,0.00,,BKN220,0.00,116.00,VWS V14.01,2013-01-23 23:40:00,
2013-01-23 15:45:00,42.0,20.0,30.23,ENE,64,0.0,2.0,41,0.00,,BKN220,0.00,100.00,VWS V14.01,2013-01-23 23:45:00,
2013-01-23 15:50:00,41.8,20.4,30.23,ENE,64,1.0,2.0,42,0.00,,BKN220,0.00,91.00,VWS V14.01,2013-01-23 23:50:00,
2013-01-23 15:55:00,41.7,20.3,30.23,ENE,64,1.0,1.0,42,0.00,,BKN220,0.00,79.00,VWS V14.01,2013-01-23 23:55:00,
2013-01-23 16:00:00,41.7,20.3,30.23,ENE,63,1.0,2.0,42,0.00,,BKN220,0.00,60.00,VWS V14.01,2013-01-24 00:00:00,
2013-01-23 16:05:00,41.5,20.1,30.23,NE,43,1.0,3.0,42,0.00,,OVC250,0.00,54.00,VWS V14.01,2013-01-24 00:05:00,
2013-01-23 16:10:00,41.4,20.0,30.23,NE,43,2.0,2.0,42,0.00,,OVC250,0.00,54.00,VWS V14.01,2013-01-24 00:10:00,
2013-01-23 16:15:00,41.3,20.5,30.23,NE,43,0.0,3.0,43,0.00,,OVC250,0.00,47.00,VWS V14.01,2013-01-24 00:15:00,
2013-01-23 16:20:00,41.1,20.3,30.23,NE,43,1.0,1.0,43,0.00,,OVC250,0.00,42.00,VWS V14.01,2013-01-24 00:20:00,
2013-01-23 16:25:00,40.9,20.1,30.23,NE,43,0.0,0.0,43,0.00,,OVC250,0.00,44.00,VWS V14.01,2013-01-24 00:25:00,
2013-01-23 16:30:00,40.9,20.1,30.22,NE,43,0.0,0.0,43,0.00,,OVC250,0.00,39.00,VWS V14.01,2013-01-24 00:30:00,
2013-01-23 16:35:00,40.9,20.1,30.22,NE,43,1.0,1.0,43,0.00,,OVC250,0.00,32.00,VWS V14.01,2013-01-24 00:35:00,
2013-01-23 16:40:00,40.7,20.0,30.22,NE,43,0.0,1.0,43,0.00,,OVC250,0.00,32.00,VWS V14.01,2013-01-24 00:40:00,
2013-01-23 16:45:00,40.5,19.8,30.22,NE,43,0.0,0.0,43,0.00,,OVC250,0.00,30.00,VWS V14.01,2013-01-24 00:45:00,
2013-01-23 16:50:00,40.4,19.7,30.23,NE,43,0.0,1.0,43,0.00,,OVC250,0.00,23.00,VWS V14.01,2013-01-24 00:50:00,
2013-01-23 16:55:00,40.3,19.6,30.22,NE,43,0.0,0.0,43,0.00,,OVC250,0.00,16.00,VWS V14.01,2013-01-24 00:55:00,
2013-01-23 17:00:00,40.0,19.9,30.23,NE,43,0.0,0.0,44,0.00,,OVC250,0.00,7.00,VWS V14.01,2013-01-24 01:00:00,
2013-01-23 17:05:00,39.7,19.6,30.23,NE,43,0.0,0.0,44,0.00,,OVC250,0.00,0.00,VWS V14.01,2013-01-24 01:05:00,
2013-01-23 17:10:00,39.3,19.8,30.23,NE,43,0.0,1.0,45,0.00,,OVC250,0.00,0.00,VWS V14.01,2013-01-24 01:10:00,
2013-01-23 17:15:00,39.2,19.7,30.23,NE,43,0.0,1.0,45,0.00,,OVC250,0.00,0.00,VWS V14.01,2013-01-24 01:15:00,
2013-01-23 17:20:00,38.9,19.4,30.23,NE,43,0.0,0.0,45,0.00,,OVC250,0.00,0.00,VWS V14.01,2013-01-24 01:20:00,
2013-01-23 17:25:00,38.4,19.4,30.23,NE,43,0.0,2.0,46,0.00,,OVC250,0.00,0.00,VWS V14.01,2013-01-24 01:25:00,
2013-01-23 17:30:00,37.6,19.2,30.23,NNE,29,1.0,6.0,47,0.00,,OVC250,0.00,0.00,VWS V14.01,2013-01-24 01:30:00,
2013-01-23 17:35:00,37.0,19.6,30.23,ENE,57,3.0,4.0,49,0.00,,OVC250,0.00,0.00,VWS V14.01,2013-01-24 01:35:00,
2013-01-23 17:40:00,36.6,19.3,30.23,ENE,59,2.0,4.0,49,0.00,,OVC250,0.00,0.00,VWS V14.01,2013-01-24 01:40:00,
2013-01-23 17:45:00,36.3,19.5,30.23,NE,42,2.0,4.0,50,0.00,,OVC250,0.00,0.00,VWS V14.01,2013-01-24 01:45:00,
2013-01-23 17:50:00,35.8,19.0,30.23,NE,44,3.0,4.0,50,0.00,,OVC250,0.00,0.00,VWS V14.01,2013-01-24 01:50:00,
2013-01-23 17:55:00,35.5,19.2,30.24,NE,42,3.0,3.0,51,0.00,,OVC250,0.00,0.00,VWS V14.01,2013-01-24 01:55:00,
2013-01-23 18:00:00,35.2,19.4,30.23,NE,42,2.0,4.0,52,0.00,,OVC250,0.00,0.00,VWS V14.01,2013-01-24 02:00:00,
2013-01-23 18:05:00,34.9,19.1,30.23,NE,54,1.0,4.0,52,0.00,,BKN150,0.00,0.00,VWS V14.01,2013-01-24 02:05:00,
2013-01-23 18:10:00,34.8,19.4,30.23,NE,54,2.0,2.0,53,0.00,,BKN150,0.00,0.00,VWS V14.01,2013-01-24 02:10:00,
2013-01-23 18:15:00,34.6,19.2,30.23,NE,54,1.0,1.0,53,0.00,,BKN150,0.00,0.00,VWS V14.01,2013-01-24 02:15:00,
2013-01-23 18:20:00,34.5,19.1,30.23,ENE,63,1.0,3.0,53,0.00,,BKN150,0.00,0.00,VWS V14.01,2013-01-24 02:20:00,
2013-01-23 18:25:00,34.5,19.1,30.23,ENE,59,2.0,3.0,53,0.00,,BKN150,0.00,0.00,VWS V14.01,2013-01-24 02:25:00,
2013-01-23 18:30:00,34.5,19.6,30.22,ENE,59,1.0,1.0,54,0.00,,BKN150,0.00,0.00,VWS V14.01,2013-01-24 02:30:00,
2013-01-23 18:35:00,34.5,19.6,30.23,ENE,68,0.0,1.0,54,0.00,,BKN150,0.00,0.00,VWS V14.01,2013-01-24 02:35:00,
2013-01-23 18:40:00,34.6,19.2,30.23,ENE,78,2.0,2.0,53,0.00,,BKN150,0.00,0.00,VWS V14.01,2013-01-24 02:40:00,
2013-01-23 18:45:00,34.6,19.2,30.24,ENE,78,0.0,0.0,53,0.00,,BKN150,0.00,0.00,VWS V14.01,2013-01-24 02:45:00,
2013-01-23 18:50:00,34.5,19.1,30.24,ENE,78,0.0,0.0,53,0.00,,BKN150,0.00,0.00,VWS V14.01,2013-01-24 02:50:00,
2013-01-23 18:55:00,34.5,19.6,30.24,ENE,78,0.0,0.0,54,0.00,,BKN150,0.00,0.00,VWS V14.01,2013-01-24 02:55:00,
2013-01-23 23:34:00,34.1,21.7,30.27,ESE,112,1.0,3.0,60,0.00,,BKN150,0.00,0.00,VWS V14.01,2013-01-24 07:34:00,
2013-01-23 23:39:00,33.9,21.5,30.27,East,86,0.0,0.0,60,0.00,,OVC095,0.00,0.00,VWS V14.01,2013-01-24 07:39:00,
2013-01-23 23:44:00,33.9,21.9,30.27,East,86,0.0,1.0,61,0.00,,OVC095,0.00,0.00,VWS V14.01,2013-01-24 07:44:00,
2013-01-23 23:49:00,33.8,21.8,30.27,SE,130,2.0,2.0,61,0.00,,OVC095,0.00,0.00,VWS V14.01,2013-01-24 07:49:00,
2013-01-23 23:54:00,33.7,21.7,30.27,SW,225,0.0,4.0,61,0.00,,OVC095,0.00,0.00,VWS V14.01,2013-01-24 07:54:00,
2013-01-23 23:59:00,33.8,21.8,30.27,SW,225,0.0,1.0,61,0.00,,OVC095,0.00,0.00,VWS V14.01,2013-01-24 07:59:00,